Погода в Питляре

Погода в Питляре : погода сейчас, прогноз погоды и архив. Всё, что Вы хотите узнать о погоде в Питляре!

Хотите узнать прогноз погоды в Питляре? Тогда Вам сюда: Погода в Питляре

Поиск расширенной информации на нашем сайте:

Другие новости

Новости СМИ2

Главная страница сайта

Новости сайта

03.07.2017

Напоминаем, что на нашем специализированном сайте Метеоцентр.Азия вы можете получить высокодетализированные автоматические прогнозы погоды по пунктам России, СНГ и мира в авиационном формате (включающие направление и скорость ветра, видимость, явления погоды, количество и форму облачности, нижнюю и верхнюю границу облачности).


Погода в Питляре - сегодня

Время (UTC), дата Ветер
(°,м/с) 
Видим.   Явления Облачность Т
(°С)
Тd
(°С)
f(%) Тe
(°С)
Pmin
(гПа)
dP
(гПа)
Po
(мм)
O2
(г/м3)
Тmin Tmax R s Состояние
почвы
12 10.11.18 300 (СЗ) 6{14}  н/о    н/о 
-5.9 -8.5 82 -10  1028.2  0.8  770  318           
15 10.11.18 280 (З) 4{11}  20000 м    10/0 средняя 
[Ac As]
-5.3 -8.3 79 -9  1028.8  0.6  770  317    -5       
18 10.11.18 280 (З) 7{11}  20000 м    10/0 средняя 
[Ac As]
-4.1 -7.4 78 -9  1028.6  -0.1  770  316           
03 11.11.18 270 (З) 11-16{18}  10 км  позёмок{снег}  10/0 средняя 
[Ac As]
-5.8 -8.9 79 -12  1025.2  -1.1  767  317  -6.4    0.2  равномерный
сухой снег
100% 
12 11.11.18 270 (З) 9-16{19}  н/о    н/о 
-5.1 -8.5 77 -11  1019.2  -2.5  763  314           
15 11.11.18 260 (З) 15-19{21}  10 км  позёмок  10/0 средняя 
[Ac As]
-5.4 -8.6 78 -13  1017.6  -1.7  762  314    -4.8       
03 12.11.18 270 (З) 12-16{16}  10 км  позёмок  10/0 средняя, верхняя 
[Ac lent|Ci sp]
-3.9 -7.4 77 -10  1014.2  -0.7  759  311  -5.8      равномерный
сухой снег
100% 
06 12.11.18 260 (З) 9-12{16}  н/о    н/о 
-3.5 -6.6 79 -9  1014.4  -0.1  759  311           
09 12.11.18 230 (ЮЗ) 6{15}  20000 м    10/0 средняя, верхняя 
[Ac lent|Ci fib]
-3.2 -5.8 82 -7  1015.2  0.9  760  310           
12 12.11.18 260 (З) 8-10{14}  н/о    н/о 
-1.5 -3.8 84 -6  1016.7  1.5  761  309           
15 12.11.18 270 (З) 7{11}  20000 м    10/0 средняя, верхняя 
[Ac lent|Ci fib]
-1.3 -3.6 84 -5  1018.3  1.6  762  309    -1.2       
18 12.11.18 230 (ЮЗ) 4{11}  20000 м    10/0 верхняя 
[Ci fib]
-3.7 -5.4 88 -7  1018.9  0.6  763  312           
03 13.11.18 220 (ЮЗ) 20000 м  {снег}  10/0 средняя 
[As op]
-2.3 -3.3 93 -6  1014.1  -1.7  759  309  -4.5    0.4  равномерный
сухой снег
100% 
06 13.11.18 250 (З) 8-11{14}  н/о    н/о 
-1.4 -3.7 84 -6  1013.6  -0.5  759  308           
12 13.11.18 240 (ЮЗ) 5{13}  н/о    н/о 
-1.2 -4.3 79 -4  1012.7  -0.6  758  307           
15 13.11.18 250 (З) 7-10{15}  20000 м    10/0 средняя 
[Ac As]
-0.4 -3.7 78 -4  1011.6  -1.1  757  306    -0.2       
18 13.11.18 250 (З) 7{16}  20000 м    10/0 средняя 
[Ac As]
-0.7 -4.6 75 -5  1010.4  -1.2  756  306           
03 14.11.18 230 (ЮЗ) 3{12}  20000 м  {снег}  10/0 средняя 
[Ac As]
-3.3 -5.1 87 -5  1006.2  -1.1  753  308  -3.5    0.6  равномерный
сухой снег
100% 
06 14.11.18 230 (ЮЗ) н/о    н/о 
-3.2 -5.2 86 -5  1004.9  -1.3  752  307           
09 14.11.18 270 (З) 20000 м    10/0 средняя 
[As op]
-2.8 -6 79 -6  1005.6  0.7  753  307           
12 14.11.18 250 (З) н/о    н/о 
-2.8 -6 79 -7  1006.9  0.7  754  307           
15 14.11.18 260 (З) 5{10}  4000 м  слаб. снег  10/0 средняя 
[As op]
-3.4 -4.1 95 -7  1009.5  2.5  756  309    -2.7  0.3     
21 14.11.18 010 (С) 20000 м  {снег}  10/6 300 м средняя 
[Frnb|As op]
-4.5 -5.5 93 -6  1017.9  4.8  762  313           
00 15.11.18 020 (С) 20000 м  {снег}  10/0 средняя 
[As op]
-6.4 -10.2 74 -6  1022.8  766  317           
03 15.11.18 320 (СЗ) 20000 м    10/0 средняя 
[Ac und]
-7.6 -10.2 82 -9  1027.1  4.2  769  320  -7.6    0.6  равномерный
сухой снег
100% 
Время (UTC), дата Ветер
(°,м/с) 
Видим.   Явления Облачность Т
(°С)
Тd
(°С)
f(%) Тe
(°С)
Pmin
(гПа)
dP
(гПа)
Po
(мм)
O2
(г/м3)
Тmin Tmax R s Состояние
почвы

Для получения пояснительной информации подведите курсор к названию столбца.

ПОГОДА в Питляре - архив

Всё, что Вы хотите узнать о погоде в Питляре - удобно и подробно!

Выберите нужную дату (начиная с 1 января 2015* года) и нажмите кнопку "Найти".
Будут отображены архивные сводки погоды по пункту Питляр, начиная с указанной даты.


Отображать данные в формате CSV (для использования в таблицах Excel)


Внимание! Наш архив погоды предназначен исключительно для личного некоммерческого использования в познавательных целях. Если Вам необходимы официальные справки о состоянии погоды (для производственных, юридических, коммерческих и т.п. целей), обращайтесь в органы Росгидромета.

*Примечание: данная дата относится к архиву по метеостанциям СССР (Россия, СНГ, Балтия).
Архив по метеостанциям Зарубежной Европы и Азии (кроме Китая) хранится 10 дней, по другим регионам земного шара (Китай, Африка, Америка, Австралия, Океания) - 1 день.

Питляр - район местоположения метеостанции


Название, широта, долгота, высота метеостанции:
Питляр 65.8°ш. 66°д. 17 м над ур. моря [Российская Федерация]

Дополнительная информация

В oтличие oт бoльшинства пoгoдных сайтoв мы публикуем пoдрoбную метеoинфoрмацию в детальнoм прoфессиoнальнoм фoрмате.

Характеристики температуры и влажнoсти вoздуха измеряются на высoте 2 м в тени вдали oт зданий и деревьев.
Скoрoсть ветра измеряется на высoте 10 м (на урoвне рoста челoвека скoрoсть ветра ниже в 1.5-2 раза). Если метеoстанция нахoдится в гoрoде или в лесу, тo скoрoсть ветра занижена на 2-4 м/с пo сравнению с oткрытым местoм. Скoрoсть ветра над акватoриями крупных рек и oзёр, а также на вершинах хoлмoв на 2-5 м/с выше, чем в oбычных услoвиях.
Атмoсфернoе давление в разных тoчках местнoсти мoжет значительнo oтличаться oт давления на метеoстанции, в зависимoсти oт услoвий рельефа (при пoдъёме на 10 м давление пoнижается примернo на 1 мм рт.ст.).